• In Hungary
  • List of Countries
  • For 7 days
  • Water Temperature
  • Satellite Maps
  • Weather Map
  • News
  • Weather Widgets
  • user-avatar
    Login

    Hourly Weather Stanovets'

    Today, 25 June, Monday

    Time Temperature Precipitation Wind Pressure Humidity
    00:00 +14°C° 0 mm 2 mps 726 mmHg 85%
    01:00 +13°C° 0 mm 2 mps 726 mmHg 86%
    02:00 +13°C° 0 mm 2 mps 726 mmHg 89%
    03:00 +13°C° 0 mm 2 mps 726 mmHg 94%
    04:00 +13°C° 0 mm 2 mps 726 mmHg 95%
    05:00 +13°C° 0 mm 2 mps 726 mmHg 96%
    06:00 +12°C° 0 mm 3 mps 726 mmHg 98%
    07:00 +13°C° 0 mm 3 mps 727 mmHg 97%
    08:00 +15°C° 0 mm 2 mps 727 mmHg 96%
    09:00 +16°C° 0 mm 2 mps 727 mmHg 94%
    10:00 +18°C° 0 mm 1 mps 728 mmHg 90%
    11:00 +18°C° 0 mm 2 mps 728 mmHg 86%
    12:00 +18°C° 0 mm 2 mps 728 mmHg 86%
    13:00 +19°C° 0.2 mm 2 mps 728 mmHg 86%
    14:00 +20°C° 0.3 mm 1 mps 728 mmHg 82%
    15:00 +20°C° 0.1 mm 1 mps 727 mmHg 82%
    16:00 +21°C° 0 mm 1 mps 727 mmHg 83%
    17:00 +21°C° 0 mm 1 mps 727 mmHg 82%
    18:00 +19°C° 0.9 mm 2 mps 727 mmHg 89%
    19:00 +18°C° 0.1 mm 0 mps 727 mmHg 82%
    20:00 +17°C° 0 mm 0 mps 727 mmHg 89%
    21:00 +17°C° 0 mm 0 mps 727 mmHg 82%
    22:00 +17°C° 0 mm 0 mps 727 mmHg 83%
    23:00 +18°C° 0 mm 1 mps 727 mmHg 83%

    Tomorrow, 26 June, Tuesday

    Time Temperature Precipitation Wind Pressure Humidity
    00:00 +18°C° 0 mm 1 mps 727 mmHg 83%
    01:00 +18°C° 0 mm 1 mps 727 mmHg 81%
    02:00 +16°C° 0 mm 1 mps 727 mmHg 78%
    03:00 +16°C° 0 mm 1 mps 727 mmHg 74%
    04:00 +16°C° 0 mm 1 mps 727 mmHg 74%
    05:00 +16°C° 0 mm 1 mps 727 mmHg 74%
    06:00 +16°C° 0 mm 1 mps 726 mmHg 75%
    07:00 +18°C° 0 mm 1 mps 727 mmHg 83%
    08:00 +19°C° 0 mm 1 mps 727 mmHg 85%
    09:00 +20°C° 0 mm 1 mps 727 mmHg 85%
    10:00 +20°C° 0 mm 1 mps 727 mmHg 87%
    11:00 +21°C° 0 mm 1 mps 727 mmHg 87%
    12:00 +22°C° 0 mm 1 mps 727 mmHg 85%
    13:00 +22°C° 0 mm 1 mps 726 mmHg 79%
    14:00 +23°C° 0 mm 2 mps 726 mmHg 75%
    15:00 +23°C° 0 mm 2 mps 726 mmHg 67%
    16:00 +23°C° 0 mm 2 mps 725 mmHg 65%
    17:00 +23°C° 0 mm 2 mps 725 mmHg 78%
    18:00 +23°C° 0 mm 1 mps 725 mmHg 80%
    19:00 +22°C° 0 mm 1 mps 725 mmHg 84%
    20:00 +21°C° 0.2 mm 1 mps 725 mmHg 90%
    21:00 +21°C° 0 mm 1 mps 725 mmHg 85%
    22:00 +21°C° 0 mm 1 mps 725 mmHg 82%
    23:00 +21°C° 0 mm 1 mps 725 mmHg 81%

    Day after tomorrow, 27 June, Wednesday

    Time Temperature Precipitation Wind Pressure Humidity
    00:00 +19°C° 0 mm 2 mps 725 mmHg 82%
    01:00 +19°C° 0 mm 2 mps 724 mmHg 85%
    02:00 +18°C° 0 mm 2 mps 724 mmHg 86%
    03:00 +18°C° 0 mm 3 mps 724 mmHg 87%
    04:00 +18°C° 0 mm 3 mps 723 mmHg 85%
    05:00 +18°C° 0 mm 3 mps 723 mmHg 83%
    06:00 +18°C° 0 mm 4 mps 723 mmHg 81%
    07:00 +17°C° 0 mm 5 mps 724 mmHg 84%
    08:00 +17°C° 0 mm 6 mps 724 mmHg 86%
    09:00 +18°C° 0 mm 4 mps 724 mmHg 86%
    10:00 +19°C° 0 mm 3 mps 724 mmHg 82%
    11:00 +20°C° 0 mm 3 mps 724 mmHg 80%
    12:00 +21°C° 0 mm 5 mps 723 mmHg 83%
    13:00 +21°C° 0 mm 4 mps 723 mmHg 77%
    14:00 +23°C° 0 mm 4 mps 723 mmHg 76%
    15:00 +25°C° 0 mm 4 mps 722 mmHg 72%
    16:00 +25°C° 0 mm 3 mps 721 mmHg 70%
    17:00 +23°C° 0 mm 4 mps 721 mmHg 75%
    18:00 +23°C° 0 mm 5 mps 720 mmHg 76%
    19:00 +22°C° 0 mm 6 mps 719 mmHg 78%
    20:00 +21°C° 0 mm 4 mps 719 mmHg 78%
    21:00 +21°C° 0.1 mm 3 mps 719 mmHg 85%
    22:00 +20°C° 0 mm 6 mps 717 mmHg 88%
    23:00 +20°C° 0.7 mm 5 mps 718 mmHg 93%

    28 June, Thursday

    Time Temperature Precipitation Wind Pressure Humidity
    00:00 +19°C° 24.7 mm 3 mps 716 mmHg 100%
    01:00 +20°C° 14.2 mm 4 mps 714 mmHg 94%
    02:00 +21°C° 0 mm 5 mps 714 mmHg 87%
    03:00 +21°C° 0 mm 7 mps 714 mmHg 89%
    04:00 +21°C° 0 mm 6 mps 714 mmHg 87%
    05:00 +21°C° 0 mm 6 mps 715 mmHg 86%
    06:00 +21°C° 0 mm 6 mps 715 mmHg 85%
    07:00 +21°C° 0 mm 6 mps 715 mmHg 86%
    08:00 +21°C° 0 mm 7 mps 716 mmHg 88%
    09:00 +20°C° 0 mm 8 mps 717 mmHg 93%
    10:00 +17°C° 1 mm 6 mps 718 mmHg 100%
    11:00 +17°C° 0.6 mm 3 mps 719 mmHg 100%
    12:00 +18°C° 0 mm 2 mps 719 mmHg 100%
    13:00 +19°C° 0 mm 2 mps 719 mmHg 94%
    14:00 +20°C° 0 mm 2 mps 719 mmHg 88%

    29 June, Friday

    Time Temperature Precipitation Wind Pressure Humidity

    30 June, Saturday

    Time Temperature Precipitation Wind Pressure Humidity
    Show more